GW2998 Weather Reports


time (UTC)temp
F
wind
direction
speed
knots
gust
knots
rain 1hr
in
rain 24hr
in
rain mn
in
humidity
%
barometer
mb
20260507000520 49 29 0.0 1.7 0.00 0.37 0.37 93 1013.1
20260507000016 50 50 1.7 1.7 0.00 0.37 0.37 92 1012.9
20260506235514 49 29 3.5 4.3 0.00 0.37 0.37 92 1012.6
20260506235009 50 44 2.6 2.6 0.00 0.37 0.37 92 1012.6
20260506234507 50 53 0.9 3.5 0.00 0.37 0.37 91 1012.7
20260506234004 50 182 1.7 3.5 0.00 0.37 0.37 90 1012.8
20260506233501 50 51 1.7 3.5 0.00 0.37 0.37 92 1012.6
20260506232957 50 97 0.9 2.6 0.00 0.37 0.37 92 1012.6
20260506232454 50 111 1.7 2.6 0.00 0.37 0.37 93 1012.8
20260506231950 50 63 0.0 1.7 0.00 0.37 0.37 93 1012.5
20260506231447 50 89 0.9 0.9 0.00 0.37 0.37 93 1012.3
20260506230944 50 120 0.0 2.6 0.00 0.37 0.37 93 1012.7
20260506230440 50 129 0.0 1.7 0.00 0.37 0.37 92 1012.4
20260506225937 50 106 1.7 2.6 0.00 0.37 0.37 93 1012.4
20260506225435 50 58 0.9 2.6 0.00 0.37 0.37 93 1012.1
20260506224931 50 87 3.5 5.2 0.00 0.37 0.37 93 1012.0
20260506224428 51 104 2.6 4.3 0.00 0.37 0.37 95 1011.9
20260506223925 51 89 0.0 3.5 0.00 0.37 0.37 95 1011.5
20260506223420 50 204 1.7 3.5 0.00 0.37 0.37 96 1011.5
20260506222918 51 99 0.9 2.6 0.00 0.37 0.37 96 1011.5
20260506222414 51 107 1.7 2.6 0.00 0.37 0.37 96 1011.1
20260506221911 51 105 1.7 3.5 0.00 0.37 0.37 96 1011.1
20260506221408 51 120 1.7 2.6 0.00 0.37 0.37 96 1011.0
20260506220906 51 72 2.6 4.3 0.00 0.37 0.37 95 1010.8
20260506220401 51 92 1.7 4.3 0.00 0.37 0.37 95 1010.6
20260506215858 52 100 3.5 7.0 0.00 0.37 0.37 96 1010.5
20260506215354 52 53 2.6 3.5 0.00 0.37 0.37 95 1010.5
20260506214850 52 46 5.2 7.0 0.00 0.37 0.37 94 1010.3
20260506214347 52 66 4.3 11.3 0.00 0.37 0.37 93 1010.1
20260506213845 53 97 5.2 13.0 0.00 0.37 0.37 94 1009.6
20260506213342 53 61 4.3 6.1 0.00 0.37 0.37 94 1009.8
20260506212839 53 92 2.6 7.8 0.00 0.37 0.37 95 1009.5
20260506212336 53 106 1.7 6.1 0.00 0.37 0.37 96 1009.4
20260506211830 53 54 2.6 7.8 0.00 0.37 0.37 96 1009.1
20260506211327 54 357 1.7 7.8 0.00 0.37 0.37 95 1009.2
20260506210824 54 52 2.6 11.3 0.00 0.37 0.37 95 1009.0
20260506210321 55 38 4.3 9.6 0.00 0.37 0.37 95 1008.9
20260506205818 56 58 1.7 8.7 0.00 0.37 0.37 95 1008.8
20260506205314 59 25 3.5 7.8 0.00 0.37 0.37 97 1008.9
20260506204810 59 128 1.7 6.1 0.00 0.37 0.37 97 1008.6
20260506204308 61 28 3.5 6.1 0.00 0.37 0.37 99 1008.5
20260506203806 61 149 2.6 5.2 0.00 0.37 0.37 98 1008.3
20260506203303 61 89 0.0 3.5 0.00 0.37 0.37 99 1008.1
20260506202800 61 89 0.0 3.5 0.00 0.37 0.37 99 1008.1
20260506202257 61 89 1.7 7.0 0.00 0.37 0.37 99 1008.2
20260506201753 61 50 1.7 4.3 0.00 0.37 0.37 99 1008.3
20260506201250 60 75 0.0 3.5 0.00 0.37 0.37 99 1008.4
20260506200747 60 123 0.0 4.3 0.00 0.37 0.37 99 1008.5
20260506200243 60 176 3.5 5.2 0.00 0.37 0.37 99 1008.4
20260506195740 60 104 0.0 3.5 0.00 0.37 0.37 99 1008.5
20260506195236 60 115 0.0 5.2 0.00 0.37 0.37 99 1008.3
20260506194734 60 97 0.9 4.3 0.00 0.37 0.37 99 1008.6
20260506194230 60 197 1.7 4.3 0.00 0.37 0.37 99 1008.6
20260506193728 60 164 1.7 3.5 0.00 0.37 0.37 99 1008.6
20260506193224 60 126 1.7 5.2 0.00 0.37 0.37 99 1008.5
20260506192721 60 207 3.5 4.3 0.00 0.37 0.37 99 1008.4
20260506192218 60 176 1.7 4.3 0.00 0.37 0.37 99 1008.6
20260506191714 60 204 1.7 5.2 0.00 0.37 0.37 99 1008.8
20260506191205 60 207 1.7 5.2 0.00 0.37 0.37 99 1008.6
20260506190703 60 99 0.9 2.6 0.00 0.37 0.37 99 1008.6
20260506190159 60 94 1.7 3.5 0.00 0.37 0.37 99 1008.6
20260506185656 60 167 2.6 3.5 0.00 0.37 0.37 99 1008.7
20260506185152 60 180 1.7 7.0 0.02 0.37 0.37 99 1008.9
20260506184650 60 129 2.6 4.3 0.02 0.37 0.37 99 1008.9
20260506184147 60 116 2.6 7.8 0.00 0.37 0.37 99 1009.0
20260506183644 60 75 0.0 2.6 0.00 0.37 0.37 99 1008.9
20260506183139 60 140 0.9 2.6 0.00 0.37 0.37 99 1008.9
20260506182637 60 182 2.6 4.3 0.00 0.37 0.37 99 1009.0
20260506182134 60 169 0.9 5.2 0.00 0.37 0.37 99 1008.9
20260506181632 60 115 0.0 2.6 0.00 0.37 0.37 99 1009.0
20260506181129 60 194 1.7 5.2 0.00 0.37 0.37 99 1009.0
20260506180626 60 180 0.0 3.5 0.00 0.37 0.37 99 1008.9
20260506180122 60 76 2.6 2.6 0.00 0.37 0.37 99 1009.0
20260506175619 60 105 0.0 2.6 0.00 0.37 0.37 99 1009.1
20260506175114 60 122 0.9 2.6 0.00 0.37 0.37 99 1008.9
20260506174614 60 124 1.7 4.3 0.00 0.37 0.37 99 1008.8
20260506174110 60 64 2.6 3.5 0.02 0.37 0.37 99 1009.0
20260506173608 60 182 1.7 3.5 0.00 0.36 0.36 99 1009.0
20260506173104 60 157 0.0 3.5 0.05 0.36 0.36 99 1009.0
20260506172602 60 108 0.9 2.6 0.07 0.36 0.36 99 1009.1
20260506172057 59 171 0.9 5.2 0.07 0.35 0.35 99 1009.1
20260506171555 59 109 1.7 4.3 0.07 0.35 0.35 99 1009.3
20260506171053 59 236 0.0 3.5 0.07 0.34 0.34 99 1009.2
20260506170550 59 57 0.9 3.5 0.05 0.34 0.34 99 1009.3
20260506170047 59 113 0.0 1.7 0.05 0.33 0.33 99 1009.2
20260506165546 59 89 0.0 2.6 0.07 0.33 0.33 99 1009.3
20260506165042 59 76 0.0 1.7 0.05 0.32 0.32 99 1009.2
20260506164539 59 54 0.0 1.7 0.09 0.32 0.32 99 1009.2
20260506164036 59 166 1.7 2.6 0.09 0.31 0.31 99 1009.1
20260506163532 59 44 0.0 1.7 0.05 0.30 0.30 99 1009.3
20260506163028 59 101 0.0 2.6 0.02 0.29 0.29 99 1009.1
20260506162524 59 180 2.6 3.5 0.02 0.29 0.29 99 1009.1
20260506162021 59 84 0.0 2.6 0.02 0.29 0.29 99 1009.2
20260506161518 60 75 0.0 2.6 0.02 0.29 0.29 99 1009.1
20260506161010 59 129 0.0 1.7 0.05 0.29 0.29 99 1009.3
20260506160508 59 120 0.9 3.5 0.05 0.28 0.28 99 1009.0
20260506160005 59 89 0.0 2.6 0.09 0.28 0.28 99 1009.4
20260506155502 59 70 0.0 3.5 0.12 0.28 0.28 99 1009.4
20260506153634 59 66 0.0 2.6 0.14 0.24 0.24 99 1009.7
20260506153132 59 127 0.9 1.7 0.12 0.22 0.22 99 1009.6
20260506152628 60 25 0.0 3.5 0.09 0.21 0.21 99 1009.8
20260506152126 60 4 0.0 1.7 0.09 0.20 0.20 99 1009.7
20260506151625 60 124 0.0 2.6 0.05 0.19 0.19 99 1009.6
20260506151121 60 114 0.9 1.7 0.05 0.19 0.19 99 1009.4
20260506150618 60 104 1.7 2.6 0.07 0.18 0.18 99 1009.3
20260506150115 60 104 0.0 1.7 0.07 0.18 0.18 99 1009.5
20260506145612 60 74 0.9 1.7 0.05 0.17 0.17 99 1009.4
20260506145109 60 83 0.0 2.6 0.05 0.17 0.17 99 1009.3
20260506144606 60 127 0.0 1.7 0.07 0.16 0.16 99 1009.4
20260506144102 60 109 0.9 2.6 0.05 0.15 0.15 99 1009.4
20260506143601 60 154 0.0 2.6 0.02 0.15 0.15 99 1009.4
20260506143058 60 62 0.0 1.7 0.02 0.15 0.15 99 1009.5
20260506142556 60 142 0.0 1.7 0.07 0.15 0.15 99 1009.7
20260506142054 60 107 0.9 2.6 0.09 0.14 0.14 98 1009.5
20260506141551 60 54 1.7 2.6 0.07 0.13 0.13 98 1009.6
20260506141050 59 32 0.9 1.7 0.07 0.12 0.12 98 1009.6
20260506140547 59 57 0.0 2.6 0.07 0.11 0.11 98 1009.6
20260506140044 59 13 0.0 2.6 0.07 0.11 0.11 98 1009.8
20260506135541 59 57 0.0 1.7 0.12 0.10 0.10 97 1009.8
20260506135037 59 63 0.0 1.7 0.14 0.09 0.09 97 1010.1
20260506134534 59 44 0.9 1.7 0.09 0.08 0.08 97 1010.1
20260506134029 59 64 0.9 1.7 0.07 0.07 0.07 97 1010.5
20260506133527 59 50 0.9 1.7 0.05 0.06 0.06 97 1010.2
20260506133024 59 81 0.9 1.7 0.05 0.06 0.06 96 1010.3
20260506132521 59 67 0.9 1.7 0.07 0.06 0.06 96 1010.5
20260506132018 60 86 0.0 1.7 0.07 0.05 0.05 95 1010.5
20260506131515 60 114 0.9 2.6 0.07 0.04 0.04 95 1010.5
20260506131012 60 63 0.0 1.7 0.07 0.04 0.04 94 1010.6
20260506130508 60 89 0.0 3.5 0.07 0.03 0.03 94 1010.4
20260506130006 60 77 0.9 2.6 0.05 0.02 0.02 92 1010.5
20260506125504 60 47 0.9 2.6 0.02 0.02 0.02 93 1010.5
20260506125001 60 202 0.0 2.6 0.02 0.02 0.02 92 1010.4
20260506124459 60 59 0.9 2.6 0.00 0.01 0.01 92 1010.2
20260506123957 61 128 0.9 1.7 0.02 0.01 0.01 91 1010.1
20260506123455 61 140 0.9 2.6 0.05 0.01 0.01 90 1010.0
20260506122952 62 138 0.0 2.6 0.05 0.01 0.01 87 1009.8
20260506122449 62 81 0.9 1.7 0.02 0.00 0.00 86 1009.7
20260506121947 62 123 0.9 2.6 0.00 0.00 0.00 85 1009.6
20260506121444 62 169 0.0 1.7 0.00 0.00 0.00 85 1009.6
20260506120940 63 199 0.9 1.7 0.00 0.00 0.00 81 1009.7
20260506120438 63 150 0.0 2.6 0.00 0.00 0.00 81 1010.1
20260506115935 63 146 0.9 2.6 0.00 0.00 0.00 81 1010.0
20260506115433 63 113 1.7 3.5 0.00 0.00 0.00 79 1010.0
20260506114931 63 192 0.0 1.7 0.00 0.00 0.00 80 1010.1
20260506114428 62 99 0.9 1.7 0.00 0.00 0.00 78 1009.8
20260506113927 62 81 2.6 2.6 0.00 0.00 0.00 81 1009.8
20260506113424 62 171 0.0 2.6 0.00 0.00 0.00 81 1010.0
20260506112915 62 127 0.0 1.7 0.00 0.00 0.00 79 1009.6
20260506112413 62 75 0.0 1.7 0.00 0.00 0.00 79 1009.6
20260506111910 62 166 0.9 3.5 0.00 0.00 0.00 78 1009.7
20260506111408 62 37 0.0 2.6 0.00 0.00 0.00 80 1009.5
20260506110905 61 55 0.0 2.6 0.00 0.00 0.00 81 1009.5
20260506110402 61 100 2.6 2.6 0.00 0.00 0.00 81 1009.6
20260506105859 60 39 0.0 1.7 0.00 0.00 0.00 83 1009.7
20260506105355 59 178 1.7 3.5 0.00 0.00 0.00 86 1009.5
20260506104853 59 127 0.0 1.7 0.00 0.00 0.00 88 1009.5
20260506104350 59 112 1.7 1.7 0.00 0.00 0.00 86 1009.3
20260506103848 58 134 0.0 1.7 0.00 0.00 0.00 87 1009.4
20260506103345 58 88 1.7 2.6 0.00 0.00 0.00 88 1009.1
20260506102842 57 39 0.0 1.7 0.00 0.00 0.00 90 1009.0
20260506102340 57 76 0.0 0.9 0.00 0.00 0.00 89 1009.2
20260506101837 57 75 0.0 2.6 0.00 0.00 0.00 88 1009.1
20260506101333 57 53 0.9 1.7 0.00 0.00 0.00 88 1009.4
20260506100831 57 49 0.9 2.6 0.00 0.00 0.00 87 1008.9
20260506100329 57 44 0.0 1.7 0.00 0.00 0.00 88 1009.3
20260506095827 57 349 0.0 2.6 0.00 0.00 0.00 87 1009.3
20260506095324 57 60 0.0 1.7 0.00 0.00 0.00 87 1009.3
20260506094821 57 67 1.7 1.7 0.00 0.00 0.00 87 1009.3
20260506094320 57 51 0.9 1.7 0.00 0.00 0.00 87 1009.4
20260506093818 56 75 0.9 1.7 0.00 0.00 0.00 86 1009.4
20260506093314 56 79 0.9 1.7 0.00 0.00 0.00 87 1009.2
20260506092812 56 71 1.7 1.7 0.00 0.00 0.00 88 1009.4
20260506092310 56 70 0.9 1.7 0.00 0.00 0.00 88 1009.2
20260506091807 56 44 0.0 1.7 0.00 0.00 0.00 89 1009.2
20260506091304 56 52 0.0 1.7 0.00 0.00 0.00 88 1009.4
20260506090802 56 354 0.9 1.7 0.00 0.00 0.00 89 1009.5
20260506090259 55 49 1.7 2.6 0.00 0.00 0.00 90 1009.3
20260506085755 55 89 0.9 1.7 0.00 0.00 0.00 91 1009.6
20260506085252 55 48 1.7 2.6 0.00 0.00 0.00 90 1009.6
20260506084748 55 42 0.9 1.7 0.00 0.00 0.00 91 1009.6
20260506084245 55 25 0.0 0.9 0.00 0.00 0.00 91 1009.5
20260506083742 55 78 0.0 1.7 0.00 0.00 0.00 90 1009.7
20260506083240 55 73 0.0 1.7 0.00 0.00 0.00 90 1010.0
20260506082737 55 80 1.7 2.6 0.00 0.00 0.00 90 1010.1
20260506082232 55 115 0.0 1.7 0.00 0.00 0.00 90 1009.7
20260506081730 55 58 0.9 1.7 0.00 0.00 0.00 90 1009.5
20260506081227 55 44 0.0 1.7 0.00 0.00 0.00 91 1009.7
20260506080726 55 47 0.9 1.7 0.00 0.00 0.00 91 1009.8
20260506080221 55 39 1.7 1.7 0.00 0.00 0.00 91 1009.4
20260506073206 54 68 0.0 1.7 0.00 0.00 0.00 91 1009.7
20260506072702 54 66 0.0 1.7 0.00 0.00 0.00 91 1009.7
20260506072200 55 62 0.9 1.7 0.00 0.00 0.00 91 1010.0
20260506071657 54 111 0.9 1.7 0.00 0.00 0.00 91 1009.8
20260506071155 54 42 0.0 1.7 0.00 0.00 0.00 91 1009.8
20260506070652 54 80 0.9 1.7 0.00 0.00 0.00 91 1009.8
20260506070148 54 44 0.0 1.7 0.00 0.00 0.00 91 1010.0
20260506062126 53 51 1.7 2.6 0.00 0.00 0.00 92 1010.3
20260506061621 53 353 0.0 1.7 0.00 0.00 0.00 92 1010.3
20260506061120 53 53 0.9 1.7 0.00 0.00 0.00 92 1010.3
20260506060618 53 44 0.9 0.9 0.00 0.00 0.00 92 1010.3
20260506060114 53 75 0.0 0.9 0.00 0.00 0.00 92 1010.4
20260506051046 54 54 1.7 2.6 0.00 0.00 0.00 91 1010.8
20260506050544 54 112 0.9 1.7 0.00 0.00 0.00 91 1010.9
20260506045035 55 65 0.0 1.7 0.00 0.00 0.00 90 1010.9
20260506044533 55 41 0.9 1.7 0.00 0.00 0.00 89 1010.8
20260506044029 55 28 0.0 1.7 0.00 0.00 0.00 89 1010.8
20260506043526 55 50 0.9 0.9 0.00 0.00 0.00 89 1010.8
20260506043025 55 48 0.9 1.7 0.00 0.00 0.00 89 1010.9
20260506042523 55 37 0.0 1.7 0.00 0.00 0.00 88 1010.9
20260506042021 55 47 0.9 1.7 0.00 0.00 0.00 89 1010.9
20260506041520 56 44 0.0 1.7 0.00 0.00 0.00 88 1011.1
20260506041016 56 33 0.0 1.7 0.00 0.00 0.00 88 1010.9
20260506040514 56 32 0.0 1.7 0.00 0.00 0.00 87 1011.0
20260506040009 56 62 0.0 1.7 0.00 0.07 0.07 87 1011.1
20260506035507 56 50 0.0 0.9 0.00 0.07 0.07 87 1010.8
20260506035003 56 50 0.0 1.7 0.00 0.07 0.07 87 1011.0
20260506034501 57 44 0.9 1.7 0.00 0.07 0.07 86 1011.1
20260506033957 57 62 0.0 0.9 0.00 0.07 0.07 85 1011.1
20260506033455 57 45 0.0 1.7 0.00 0.07 0.07 85 1011.1
20260506032951 57 15 0.0 0.9 0.00 0.07 0.07 85 1010.9
20260506032449 58 55 0.0 1.7 0.00 0.07 0.07 84 1010.9
20260506031945 58 330 0.0 0.9 0.00 0.07 0.07 84 1010.9
20260506031443 58 62 0.0 1.7 0.00 0.07 0.07 83 1010.9
20260506030940 58 55 0.0 1.7 0.00 0.07 0.07 83 1011.1
20260506030438 59 50 0.0 0.9 0.00 0.07 0.07 83 1010.8
20260506025935 59 50 0.0 0.9 0.00 0.07 0.07 82 1010.9
20260506025432 59 62 0.0 0.9 0.00 0.07 0.07 81 1010.9
20260506024928 60 50 0.0 1.7 0.00 0.07 0.07 79 1010.9
20260506024425 60 49 0.0 0.9 0.00 0.07 0.07 79 1010.8
20260506023921 60 32 0.0 0.9 0.00 0.07 0.07 79 1010.7
20260506023418 61 39 0.9 0.9 0.00 0.07 0.07 76 1010.8
20260506022915 61 37 0.0 0.9 0.00 0.07 0.07 76 1010.9
20260506022413 61 69 0.0 0.0 0.00 0.07 0.07 76 1010.9
20260506021910 61 66 0.0 0.0 0.00 0.07 0.07 78 1010.8
20260506021407 62 75 0.9 1.7 0.00 0.07 0.07 76 1010.9
20260506020904 62 13 0.0 0.9 0.00 0.07 0.07 75 1011.0
20260506020402 63 50 0.0 0.9 0.00 0.07 0.07 75 1010.9
20260506015859 63 37 0.0 0.9 0.00 0.07 0.07 73 1011.0
20260506015356 64 103 0.0 0.9 0.00 0.07 0.07 72 1010.8
20260506014853 64 22 0.0 0.0 0.00 0.07 0.07 71 1010.8
20260506014350 64 89 0.0 0.0 0.00 0.07 0.07 70 1010.9
20260506013847 64 80 0.0 0.0 0.00 0.07 0.07 70 1010.8
20260506013344 65 135 0.0 0.9 0.00 0.07 0.07 70 1010.7
20260506012840 64 205 0.0 0.9 0.00 0.07 0.07 67 1010.8
20260506012338 65 50 0.0 0.0 0.00 0.07 0.07 68 1010.8
20260506011835 65 37 0.0 0.9 0.00 0.07 0.07 68 1010.5
20260506011331 65 158 0.0 0.9 0.00 0.07 0.07 65 1010.5
20260506010829 66 44 0.0 0.0 0.00 0.07 0.07 65 1010.3
20260506010327 66 50 0.0 0.0 0.00 0.07 0.07 64 1010.4
20260506005823 66 50 0.0 0.9 0.00 0.07 0.07 63 1010.3
20260506005320 66 37 0.0 0.0 0.00 0.07 0.07 61 1010.0
20260506004816 67 37 0.0 0.0 0.00 0.07 0.07 62 1010.1
20260506004314 67 37 0.0 0.9 0.00 0.07 0.07 63 1010.0
20260506003810 68 172 0.0 0.0 0.00 0.07 0.07 63 1010.0
20260506003306 68 44 0.0 0.0 0.00 0.07 0.07 63 1009.8
20260506002802 69 44 0.0 0.9 0.00 0.07 0.07 64 1010.0
20260506002259 69 217 0.0 0.0 0.00 0.07 0.07 59 1009.7
20260506001755 70 89 0.0 1.7 0.00 0.07 0.07 54 1009.8
20260506001252 70 309 0.0 0.9 0.00 0.07 0.07 60 1009.6